UAL1568 KEWR-KIAH

Flight info

Callsign UAL1568
Flight time 3h 31m
Altitude 36000
Route LANNA J48 CSN FANPO Q40 AEX DOOBI3
Aircraft A21N/M-SDE2E3FGHIRWXY/LB1

Departure

Time 2026-05-04 14:26
Airport Newark Liberty International Airport (KEWR)

Arrival

Time 2026-05-04 17:57
Airport George Bush Intercontinental Airport (KIAH)
Time Latitude Longitude Altitude Speed Heading
2026-05-04 13:51 40.69377 -74.17319 21 ft 0 kts 63°
2026-05-04 14:18 40.69377 -74.17320 21 ft 1 kts 63°
2026-05-04 14:18 40.69344 -74.17369 22 ft 3 kts 48°
2026-05-04 14:19 40.69337 -74.17423 21 ft 4 kts 106°
2026-05-04 14:19 40.69340 -74.17437 22 ft 0 kts 99°
2026-05-04 14:21 40.69339 -74.17430 22 ft 3 kts 99°
2026-05-04 14:21 40.69326 -74.17362 21 ft 12 kts 105°
2026-05-04 14:21 40.69285 -74.17260 20 ft 7 kts 120°
2026-05-04 14:21 40.69273 -74.17231 21 ft 0 kts 120°
2026-05-04 14:22 40.69269 -74.17222 21 ft 2 kts 120°
2026-05-04 14:22 40.69254 -74.17187 21 ft 7 kts 118°
2026-05-04 14:22 40.69223 -74.17106 22 ft 13 kts 113°
2026-05-04 14:22 40.69268 -74.17009 22 ft 15 kts 28°
2026-05-04 14:23 40.69462 -74.16883 27 ft 16 kts 26°
2026-05-04 14:23 40.69574 -74.16810 23 ft 19 kts 26°
2026-05-04 14:23 40.69700 -74.16730 21 ft 22 kts 26°
2026-05-04 14:24 40.69848 -74.16636 18 ft 25 kts 26°
2026-05-04 14:24 40.69989 -74.16546 18 ft 18 kts 25°
2026-05-04 14:24 40.70053 -74.16496 20 ft 0 kts 58°
2026-05-04 14:24 40.70060 -74.16475 18 ft 6 kts 71°
2026-05-04 14:25 40.70049 -74.16384 19 ft 15 kts 139°
2026-05-04 14:25 40.69857 -74.16472 19 ft 51 kts 205°
2026-05-04 14:25 40.69358 -74.16789 26 ft 109 kts 206°
2026-05-04 14:26 40.68514 -74.17323 139 ft 146 kts 207°
2026-05-04 14:26 40.67627 -74.17837 791 ft 139 kts 203°
2026-05-04 14:26 40.66637 -74.18000 1338 ft 150 kts 180°
2026-05-04 14:26 40.65598 -74.17800 2001 ft 153 kts 179°
2026-05-04 14:27 40.64453 -74.17625 2442 ft 179 kts 184°
2026-05-04 14:27 40.63139 -74.17726 2558 ft 196 kts 199°
2026-05-04 14:27 40.61865 -74.18393 2521 ft 198 kts 209°
2026-05-04 14:27 40.60646 -74.19232 2509 ft 198 kts 211°
2026-05-04 14:28 40.59433 -74.20091 2501 ft 198 kts 211°
2026-05-04 14:28 40.58221 -74.20981 2791 ft 200 kts 216°
2026-05-04 14:28 40.57222 -74.22175 3410 ft 195 kts 232°
2026-05-04 14:28 40.56591 -74.23748 4434 ft 197 kts 251°
2026-05-04 14:29 40.56196 -74.27372 5799 ft 204 kts 266°
2026-05-04 14:29 40.56256 -74.31143 7120 ft 209 kts 270°
2026-05-04 14:30 40.56307 -74.33140 7451 ft 230 kts 270°
2026-05-04 14:30 40.56344 -74.35344 7884 ft 248 kts 269°
2026-05-04 14:30 40.56367 -74.40000 9524 ft 259 kts 270°
2026-05-04 14:31 40.56363 -74.42348 10317 ft 265 kts 270°
2026-05-04 14:31 40.56343 -74.47582 11063 ft 307 kts 270°
2026-05-04 14:32 40.56315 -74.53369 12464 ft 323 kts 270°
2026-05-04 14:32 40.56299 -74.56345 13291 ft 327 kts 270°
2026-05-04 14:32 40.56283 -74.59357 14087 ft 332 kts 270°
2026-05-04 14:32 40.56266 -74.62396 14877 ft 333 kts 270°
2026-05-04 14:33 40.56250 -74.65414 15668 ft 335 kts 270°
2026-05-04 14:33 40.56232 -74.68479 16466 ft 336 kts 270°
2026-05-04 14:33 40.56213 -74.71563 17228 ft 338 kts 270°
2026-05-04 14:33 40.56193 -74.74669 17986 ft 340 kts 270°
2026-05-04 14:34 40.56173 -74.77783 18645 ft 343 kts 270°
2026-05-04 14:34 40.56151 -74.80940 19216 ft 347 kts 270°
2026-05-04 14:34 40.56129 -74.84129 19767 ft 351 kts 271°
2026-05-04 14:34 40.56105 -74.87358 20321 ft 355 kts 271°
2026-05-04 14:35 40.56081 -74.90627 20866 ft 359 kts 271°
2026-05-04 14:35 40.56055 -74.93882 21439 ft 363 kts 271°
2026-05-04 14:35 40.55952 -74.97211 22001 ft 367 kts 266°
2026-05-04 14:35 40.55523 -75.00543 22536 ft 373 kts 258°
2026-05-04 14:36 40.54670 -75.03796 23044 ft 381 kts 249°
2026-05-04 14:36 40.53354 -75.06861 23538 ft 389 kts 240°
2026-05-04 14:36 40.51747 -75.09760 23900 ft 396 kts 237°
2026-05-04 14:36 40.50007 -75.12595 24310 ft 400 kts 234°
2026-05-04 14:37 40.48207 -75.15391 24731 ft 402 kts 234°
2026-05-04 14:37 40.46380 -75.18191 25131 ft 405 kts 234°
2026-05-04 14:37 40.44568 -75.20974 25503 ft 407 kts 234°
2026-05-04 14:37 40.42731 -75.23819 25896 ft 409 kts 234°
2026-05-04 14:38 40.40892 -75.26688 26269 ft 412 kts 234°
2026-05-04 14:38 40.39055 -75.29574 26663 ft 413 kts 234°
2026-05-04 14:38 40.37216 -75.32470 27080 ft 414 kts 234°
2026-05-04 14:38 40.35371 -75.35378 27431 ft 416 kts 235°
2026-05-04 14:39 40.33516 -75.38302 27748 ft 419 kts 235°
2026-05-04 14:39 40.31648 -75.41244 28077 ft 421 kts 234°
2026-05-04 14:39 40.29769 -75.44198 28351 ft 424 kts 235°
2026-05-04 14:40 40.25973 -75.50159 28862 ft 431 kts 234°
2026-05-04 14:40 40.24045 -75.53179 29178 ft 433 kts 234°
2026-05-04 14:40 40.22199 -75.56284 29517 ft 431 kts 239°
2026-05-04 14:40 40.20506 -75.59486 30114 ft 425 kts 240°
2026-05-04 14:41 40.18862 -75.62676 30589 ft 421 kts 241°
2026-05-04 14:41 40.17250 -75.65860 30970 ft 419 kts 241°
2026-05-04 14:41 40.14062 -75.72220 31657 ft 417 kts 241°
2026-05-04 14:42 40.10895 -75.78533 32312 ft 414 kts 241°
2026-05-04 14:42 40.09333 -75.81635 32513 ft 416 kts 241°
2026-05-04 14:42 40.07736 -75.84801 32705 ft 418 kts 241°
2026-05-04 14:43 40.06138 -75.87961 33028 ft 416 kts 241°
2026-05-04 14:43 40.04543 -75.91105 33366 ft 414 kts 241°
2026-05-04 14:43 40.02964 -75.94213 33821 ft 408 kts 241°
2026-05-04 14:43 40.01401 -75.97286 34170 ft 405 kts 241°
2026-05-04 14:44 39.99842 -76.00354 34345 ft 406 kts 241°
2026-05-04 14:44 39.98278 -76.03431 34483 ft 407 kts 241°
2026-05-04 14:44 39.96714 -76.06506 34635 ft 408 kts 241°
2026-05-04 14:44 39.95167 -76.09544 34798 ft 408 kts 240°
2026-05-04 14:45 39.93595 -76.12626 34963 ft 408 kts 240°
2026-05-04 14:45 39.92026 -76.15699 35125 ft 408 kts 241°
2026-05-04 14:45 39.88859 -76.21893 35318 ft 411 kts 240°
2026-05-04 14:46 39.87275 -76.24984 35497 ft 411 kts 240°
2026-05-04 14:46 39.85692 -76.28071 35658 ft 410 kts 240°
2026-05-04 14:46 39.84108 -76.31157 35826 ft 410 kts 240°
2026-05-04 14:46 39.82543 -76.34202 35979 ft 410 kts 240°
2026-05-04 14:47 39.79352 -76.40410 36010 ft 417 kts 240°
2026-05-04 14:47 39.76102 -76.46720 36014 ft 424 kts 240°
2026-05-04 14:48 39.72788 -76.53138 36008 ft 431 kts 240°
2026-05-04 14:48 39.69424 -76.59636 35986 ft 434 kts 240°
2026-05-04 14:49 39.66083 -76.66071 36004 ft 432 kts 240°
2026-05-04 14:49 39.62722 -76.72535 36005 ft 432 kts 240°
2026-05-04 14:50 39.59360 -76.78991 36010 ft 432 kts 240°
2026-05-04 14:50 39.55993 -76.85445 36016 ft 432 kts 240°
2026-05-04 14:51 39.52618 -76.91901 36008 ft 433 kts 240°
2026-05-04 14:51 39.48971 -76.98063 36011 ft 438 kts 229°
2026-05-04 14:52 39.44408 -77.03318 36015 ft 440 kts 225°
2026-05-04 14:52 39.39652 -77.08330 36020 ft 441 kts 224°
2026-05-04 14:53 39.34863 -77.13297 36037 ft 441 kts 224°
2026-05-04 14:53 39.30117 -77.18240 36033 ft 441 kts 224°
2026-05-04 14:54 39.25362 -77.23211 36035 ft 439 kts 224°
2026-05-04 14:54 39.20615 -77.28173 36036 ft 440 kts 224°
2026-05-04 14:55 39.15854 -77.33144 36037 ft 440 kts 224°
2026-05-04 14:55 39.11098 -77.38098 35994 ft 440 kts 224°
2026-05-04 14:56 39.06370 -77.43010 36016 ft 439 kts 224°
2026-05-04 14:56 39.01616 -77.47942 36032 ft 439 kts 224°
2026-05-04 14:57 38.96859 -77.52869 36022 ft 439 kts 224°
2026-05-04 14:57 38.92130 -77.57760 36024 ft 439 kts 224°
2026-05-04 14:58 38.87367 -77.62674 36027 ft 440 kts 225°
2026-05-04 14:58 38.82597 -77.67589 36036 ft 440 kts 225°
2026-05-04 14:59 38.77826 -77.72496 36031 ft 440 kts 225°
2026-05-04 15:00 38.70694 -77.79815 36014 ft 440 kts 225°
2026-05-04 15:00 38.65929 -77.84725 36032 ft 438 kts 227°
2026-05-04 15:01 38.60013 -77.93372 36036 ft 429 kts 237°
2026-05-04 15:01 38.56404 -77.99447 36034 ft 428 kts 238°
2026-05-04 15:02 38.52849 -78.05488 36032 ft 428 kts 238°
2026-05-04 15:02 38.49259 -78.11547 36023 ft 428 kts 238°
2026-05-04 15:03 38.45657 -78.17586 36028 ft 427 kts 238°
2026-05-04 15:03 38.42146 -78.23686 36029 ft 425 kts 242°
2026-05-04 15:04 38.38991 -78.29978 36024 ft 424 kts 243°
2026-05-04 15:04 38.35883 -78.36355 36027 ft 424 kts 243°
2026-05-04 15:05 38.32782 -78.42735 36029 ft 424 kts 243°
2026-05-04 15:05 38.29671 -78.49109 36032 ft 424 kts 243°
2026-05-04 15:06 38.26575 -78.55428 36034 ft 423 kts 243°
2026-05-04 15:07 38.21891 -78.64956 36028 ft 423 kts 243°
2026-05-04 15:07 38.18766 -78.71301 36030 ft 424 kts 243°
2026-05-04 15:08 38.15633 -78.77647 36046 ft 424 kts 243°
2026-05-04 15:08 38.12515 -78.83952 36046 ft 424 kts 243°
2026-05-04 15:09 38.09376 -78.90286 36047 ft 424 kts 243°
2026-05-04 15:09 38.06239 -78.96604 36045 ft 423 kts 243°
2026-05-04 15:10 38.01522 -79.06083 36036 ft 423 kts 243°
2026-05-04 15:11 37.96821 -79.15501 36013 ft 423 kts 243°
2026-05-04 15:11 37.93669 -79.21801 35995 ft 423 kts 243°
2026-05-04 15:12 37.90512 -79.28099 35979 ft 423 kts 243°
2026-05-04 15:12 37.87352 -79.34389 35959 ft 423 kts 243°
2026-05-04 15:13 37.84199 -79.40632 35952 ft 423 kts 242°
2026-05-04 15:13 37.81022 -79.46903 35954 ft 424 kts 242°
2026-05-04 15:14 37.77840 -79.53174 35953 ft 424 kts 242°
2026-05-04 15:14 37.74679 -79.59395 35968 ft 423 kts 242°
2026-05-04 15:15 37.71494 -79.65650 35993 ft 422 kts 242°
2026-05-04 15:15 37.68324 -79.71862 36061 ft 420 kts 242°
2026-05-04 15:16 37.63572 -79.81159 36059 ft 420 kts 242°
2026-05-04 15:17 37.58831 -79.90406 36071 ft 420 kts 242°
2026-05-04 15:17 37.54060 -79.99686 36078 ft 421 kts 242°
2026-05-04 15:18 37.50877 -80.05859 36079 ft 419 kts 243°
2026-05-04 15:19 37.46139 -80.15031 36084 ft 418 kts 243°
2026-05-04 15:19 37.41384 -80.24211 36079 ft 417 kts 243°
2026-05-04 15:20 37.38213 -80.30320 36080 ft 417 kts 243°
2026-05-04 15:20 37.35040 -80.36421 36074 ft 417 kts 243°
2026-05-04 15:21 37.31885 -80.42476 36064 ft 417 kts 243°
2026-05-04 15:22 37.27147 -80.51584 36069 ft 414 kts 244°
2026-05-04 15:22 37.22670 -80.60845 36114 ft 414 kts 245°
2026-05-04 15:23 37.19741 -80.67002 36101 ft 414 kts 245°
2026-05-04 15:23 37.16775 -80.73190 36103 ft 414 kts 244°
2026-05-04 15:24 37.10810 -80.85538 36089 ft 413 kts 244°
2026-05-04 15:25 37.07868 -80.91604 36076 ft 409 kts 244°
2026-05-04 15:26 37.03449 -81.00709 36078 ft 408 kts 244°
2026-05-04 15:26 36.99028 -81.09794 36104 ft 407 kts 244°
2026-05-04 15:27 36.94618 -81.18829 36124 ft 408 kts 244°
2026-05-04 15:28 36.90178 -81.27898 36132 ft 407 kts 244°
2026-05-04 15:29 36.85741 -81.36941 36137 ft 407 kts 244°
2026-05-04 15:30 36.75384 -81.57946 36087 ft 407 kts 244°
2026-05-04 15:31 36.70876 -81.66943 36111 ft 408 kts 243°
2026-05-04 15:32 36.66976 -81.74535 36143 ft 410 kts 243°
2026-05-04 15:34 36.64202 -81.79917 36105 ft 409 kts 243°
2026-05-04 15:34 36.61389 -81.85379 36133 ft 410 kts 243°
2026-05-04 15:35 36.57940 -81.92070 36130 ft 411 kts 243°
2026-05-04 15:36 36.54527 -81.98681 36103 ft 412 kts 243°
2026-05-04 15:36 36.52333 -82.02924 36121 ft 411 kts 243°
2026-05-04 15:37 36.49515 -82.08364 36120 ft 411 kts 243°
2026-05-04 15:37 36.47154 -82.12917 36126 ft 412 kts 243°
2026-05-04 15:38 36.44889 -82.17278 36133 ft 412 kts 243°
2026-05-04 15:38 36.43051 -82.20812 36130 ft 413 kts 243°
2026-05-04 15:39 36.39960 -82.26748 36147 ft 412 kts 243°
2026-05-04 15:40 36.37203 -82.32034 36153 ft 412 kts 243°
2026-05-04 15:40 36.35707 -82.34898 36163 ft 411 kts 243°
2026-05-04 15:41 36.32535 -82.40963 36135 ft 412 kts 242°
2026-05-04 15:41 36.29505 -82.46750 36141 ft 413 kts 242°
2026-05-04 15:42 36.26454 -82.52565 36094 ft 413 kts 242°
2026-05-04 15:42 36.23316 -82.58535 36112 ft 414 kts 242°
2026-05-04 15:43 36.20150 -82.64549 36118 ft 414 kts 242°
2026-05-04 15:43 36.17426 -82.69714 36120 ft 414 kts 242°
2026-05-04 15:44 36.16640 -82.71202 36120 ft 414 kts 242°
2026-05-04 15:44 36.16012 -82.72390 36113 ft 412 kts 242°
2026-05-04 15:45 36.14929 -82.74424 36101 ft 411 kts 242°
2026-05-04 15:45 36.13900 -82.76353 36109 ft 413 kts 242°
2026-05-04 15:46 36.13168 -82.77738 36093 ft 412 kts 239°
2026-05-04 15:46 36.12217 -82.79536 36127 ft 406 kts 242°
2026-05-04 15:47 36.09089 -82.85479 36123 ft 411 kts 242°
2026-05-04 15:47 36.05930 -82.91443 36117 ft 417 kts 242°
2026-05-04 15:48 36.02837 -82.97253 36104 ft 416 kts 242°
2026-05-04 15:48 35.98192 -83.05965 36105 ft 415 kts 242°
2026-05-04 15:49 35.96816 -83.08542 36117 ft 415 kts 242°
2026-05-04 15:49 35.93805 -83.14180 36106 ft 415 kts 242°
2026-05-04 15:50 35.90727 -83.20017 36106 ft 415 kts 243°
2026-05-04 15:50 35.87734 -83.26060 36090 ft 412 kts 243°
2026-05-04 15:51 35.84795 -83.32082 36093 ft 401 kts 243°
2026-05-04 15:51 35.81950 -83.37928 36079 ft 393 kts 246°
2026-05-04 15:52 35.79122 -83.43661 36103 ft 398 kts 244°
2026-05-04 15:52 35.76180 -83.49529 36102 ft 406 kts 243°
2026-05-04 15:53 35.73176 -83.55485 36111 ft 415 kts 242°
2026-05-04 15:53 35.70409 -83.60689 36097 ft 419 kts 241°
2026-05-04 15:54 35.67317 -83.66363 36090 ft 418 kts 241°
2026-05-04 15:54 35.64082 -83.72296 36106 ft 418 kts 241°
2026-05-04 15:55 35.60911 -83.78129 36108 ft 418 kts 241°
2026-05-04 15:55 35.57843 -83.83774 36098 ft 418 kts 241°
2026-05-04 15:56 35.54880 -83.89220 36122 ft 416 kts 241°
2026-05-04 15:56 35.51795 -83.94882 36114 ft 417 kts 241°
2026-05-04 15:57 35.48500 -84.00918 36114 ft 419 kts 241°
2026-05-04 15:57 35.45803 -84.05851 36118 ft 419 kts 241°
2026-05-04 15:58 35.42577 -84.11742 36112 ft 418 kts 241°
2026-05-04 15:58 35.39319 -84.17680 36105 ft 419 kts 241°
2026-05-04 15:59 35.36123 -84.23497 36079 ft 419 kts 240°
2026-05-04 15:59 35.32865 -84.29408 36102 ft 419 kts 240°
2026-05-04 16:00 35.29716 -84.35123 36111 ft 420 kts 240°
2026-05-04 16:00 35.26449 -84.41042 36120 ft 420 kts 240°
2026-05-04 16:01 35.23175 -84.46962 36111 ft 420 kts 240°
2026-05-04 16:01 35.21035 -84.50825 36115 ft 420 kts 240°
2026-05-04 16:02 35.20163 -84.52397 36109 ft 419 kts 240°
2026-05-04 16:03 35.19022 -84.54453 36110 ft 417 kts 240°
2026-05-04 16:03 35.18216 -84.55912 36080 ft 412 kts 238°
2026-05-04 16:04 35.17526 -84.57158 36081 ft 406 kts 243°
2026-05-04 16:04 35.16334 -84.59320 36087 ft 396 kts 241°
2026-05-04 16:05 35.15622 -84.60606 36088 ft 389 kts 240°
2026-05-04 16:06 35.14678 -84.62323 36113 ft 382 kts 237°
2026-05-04 16:07 35.08697 -84.72978 36115 ft 393 kts 241°
2026-05-04 16:07 35.04035 -84.81373 36094 ft 405 kts 240°
2026-05-04 16:08 35.02439 -84.84231 36094 ft 409 kts 240°
2026-05-04 16:08 34.97547 -84.92962 36111 ft 421 kts 240°
2026-05-04 16:09 34.94240 -84.98844 36102 ft 420 kts 240°
2026-05-04 16:10 34.87649 -85.10546 36100 ft 420 kts 240°
2026-05-04 16:11 34.82082 -85.20407 36100 ft 420 kts 240°
2026-05-04 16:12 34.73129 -85.36203 36105 ft 420 kts 240°
2026-05-04 16:13 34.66505 -85.47837 36101 ft 420 kts 240°
2026-05-04 16:14 34.59948 -85.59311 36105 ft 419 kts 240°
2026-05-04 16:16 34.51814 -85.73511 36102 ft 419 kts 240°
2026-05-04 16:17 34.43658 -85.87686 36098 ft 419 kts 240°
2026-05-04 16:18 34.37001 -85.99213 36098 ft 418 kts 240°
2026-05-04 16:19 34.29216 -86.12647 36104 ft 418 kts 240°
2026-05-04 16:20 34.24342 -86.21035 36131 ft 420 kts 240°
2026-05-04 16:22 34.20633 -86.27402 36080 ft 419 kts 240°
2026-05-04 16:23 34.11796 -86.42527 36114 ft 417 kts 240°
2026-05-04 16:25 34.05762 -86.52769 36116 ft 412 kts 240°
2026-05-04 16:26 33.95806 -86.69719 36115 ft 413 kts 238°
2026-05-04 16:28 33.88277 -86.82468 36116 ft 407 kts 242°
2026-05-04 16:29 33.76629 -87.02191 36082 ft 414 kts 240°
2026-05-04 16:31 33.68308 -87.16167 36050 ft 414 kts 240°
2026-05-04 16:32 33.62615 -87.25700 36046 ft 412 kts 241°
2026-05-04 16:33 33.58459 -87.32531 36080 ft 398 kts 238°
2026-05-04 16:34 33.56837 -87.35216 36064 ft 391 kts 245°
2026-05-04 16:35 33.53085 -87.41518 36052 ft 376 kts 239°
2026-05-04 16:36 33.50409 -87.46242 36027 ft 367 kts 239°
2026-05-04 16:37 33.46852 -87.52216 36073 ft 361 kts 241°
2026-05-04 16:38 33.40779 -87.62095 36100 ft 375 kts 244°
2026-05-04 16:39 33.34491 -87.76024 36105 ft 392 kts 249°
2026-05-04 16:40 33.29421 -87.87759 36089 ft 402 kts 249°
2026-05-04 16:41 33.22964 -88.02558 36073 ft 402 kts 249°
2026-05-04 16:43 33.16512 -88.17303 36071 ft 402 kts 249°
2026-05-04 16:43 33.12633 -88.26130 36081 ft 398 kts 249°
2026-05-04 16:45 33.04983 -88.43492 36078 ft 396 kts 249°
2026-05-04 16:46 32.98622 -88.57864 36089 ft 395 kts 250°
2026-05-04 16:47 32.94380 -88.67417 36091 ft 395 kts 250°
2026-05-04 16:48 32.89691 -88.77943 36129 ft 395 kts 250°
2026-05-04 16:49 32.84533 -88.89483 36138 ft 395 kts 250°
2026-05-04 16:50 32.79399 -89.00943 36093 ft 395 kts 250°
2026-05-04 16:51 32.75547 -89.09513 36093 ft 395 kts 250°
2026-05-04 16:52 32.70562 -89.20575 36080 ft 395 kts 250°
2026-05-04 16:53 32.68257 -89.25662 36015 ft 394 kts 252°
2026-05-04 16:53 32.64801 -89.33132 36062 ft 381 kts 251°
2026-05-04 16:54 32.63546 -89.35925 36025 ft 385 kts 252°
2026-05-04 16:55 32.58864 -89.47506 36013 ft 398 kts 253°
2026-05-04 16:55 32.56473 -89.53465 36009 ft 400 kts 253°
2026-05-04 16:56 32.50421 -89.68298 36042 ft 400 kts 252°
2026-05-04 16:57 32.46842 -89.77043 36058 ft 400 kts 252°
2026-05-04 16:58 32.42041 -89.88743 36058 ft 400 kts 252°
2026-05-04 17:00 32.35139 -90.05489 36091 ft 403 kts 254°
2026-05-04 17:01 32.30052 -90.17803 36111 ft 406 kts 253°
2026-05-04 17:02 32.26122 -90.27263 36085 ft 405 kts 256°
2026-05-04 17:03 32.23454 -90.33908 36077 ft 392 kts 254°
2026-05-04 17:03 32.20414 -90.40899 36090 ft 394 kts 254°
2026-05-04 17:04 32.15921 -90.51730 36093 ft 408 kts 254°
2026-05-04 17:05 32.11826 -90.61516 36101 ft 408 kts 254°
2026-05-04 17:06 32.09820 -90.66285 36096 ft 407 kts 255°
2026-05-04 17:07 32.06862 -90.73332 36052 ft 407 kts 254°
2026-05-04 17:07 32.04507 -90.78882 36095 ft 409 kts 255°
2026-05-04 17:08 32.00728 -90.87831 36097 ft 408 kts 255°
2026-05-04 17:09 31.99135 -90.91616 36097 ft 408 kts 255°
2026-05-04 17:09 31.98090 -90.94096 36014 ft 411 kts 255°
2026-05-04 17:10 31.93538 -91.04835 36102 ft 408 kts 255°
2026-05-04 17:11 31.91843 -91.08818 36104 ft 407 kts 255°
2026-05-04 17:12 31.88948 -91.15621 36096 ft 406 kts 255°
2026-05-04 17:13 31.83394 -91.27695 36121 ft 407 kts 254°
2026-05-04 17:14 31.79231 -91.36656 36096 ft 409 kts 254°
2026-05-04 17:15 31.75675 -91.44294 36093 ft 410 kts 254°
2026-05-04 17:16 31.70779 -91.54781 36087 ft 409 kts 254°
2026-05-04 17:17 31.65379 -91.66320 36086 ft 407 kts 254°
2026-05-04 17:18 31.60255 -91.77237 36083 ft 407 kts 254°
2026-05-04 17:19 31.55044 -91.88305 36082 ft 407 kts 254°
2026-05-04 17:20 31.49581 -91.99873 36073 ft 407 kts 253°
2026-05-04 17:20 31.45458 -92.08582 36085 ft 408 kts 253°
2026-05-04 17:21 31.39947 -92.20189 36091 ft 408 kts 253°
2026-05-04 17:22 31.37206 -92.25948 36090 ft 408 kts 253°
2026-05-04 17:23 31.31689 -92.37514 36090 ft 406 kts 253°
2026-05-04 17:24 31.27581 -92.46105 36092 ft 406 kts 253°
2026-05-04 17:25 31.22325 -92.57696 36091 ft 402 kts 255°
2026-05-04 17:26 31.17195 -92.69367 36094 ft 404 kts 254°
2026-05-04 17:27 31.10774 -92.83899 36112 ft 404 kts 254°
2026-05-04 17:28 31.05617 -92.95532 36090 ft 404 kts 254°
2026-05-04 17:29 31.01778 -93.04164 34884 ft 402 kts 254°
2026-05-04 17:29 30.97882 -93.12925 33490 ft 409 kts 253°
2026-05-04 17:30 30.93922 -93.21788 32127 ft 413 kts 253°
2026-05-04 17:31 30.91275 -93.27702 31240 ft 416 kts 253°
2026-05-04 17:31 30.87233 -93.36713 29950 ft 420 kts 253°
2026-05-04 17:32 30.84540 -93.42702 28974 ft 415 kts 252°
2026-05-04 17:33 30.80566 -93.51525 27583 ft 409 kts 251°
2026-05-04 17:33 30.79248 -93.54448 27121 ft 407 kts 251°
2026-05-04 17:34 30.75323 -93.63143 25811 ft 402 kts 250°
2026-05-04 17:34 30.74026 -93.66013 25387 ft 401 kts 250°
2026-05-04 17:35 30.70158 -93.74555 24202 ft 396 kts 249°
2026-05-04 17:35 30.67617 -93.80168 23348 ft 394 kts 248°
2026-05-04 17:35 30.66349 -93.82969 22604 ft 390 kts 248°
2026-05-04 17:36 30.65092 -93.85741 21903 ft 385 kts 248°
2026-05-04 17:36 30.63849 -93.88483 21207 ft 382 kts 248°
2026-05-04 17:36 30.62618 -93.91195 20527 ft 377 kts 247°
2026-05-04 17:36 30.61425 -93.93814 19957 ft 358 kts 247°
2026-05-04 17:37 30.60282 -93.96325 19178 ft 347 kts 247°
2026-05-04 17:37 30.59167 -93.98782 18299 ft 342 kts 246°
2026-05-04 17:37 30.58079 -94.01179 17535 ft 340 kts 246°
2026-05-04 17:37 30.56974 -94.03613 17124 ft 341 kts 246°
2026-05-04 17:38 30.55872 -94.06036 16993 ft 339 kts 246°
2026-05-04 17:38 30.54774 -94.08448 16986 ft 338 kts 246°
2026-05-04 17:38 30.53677 -94.10847 16929 ft 336 kts 246°
2026-05-04 17:38 30.52587 -94.13226 16418 ft 333 kts 246°
2026-05-04 17:39 30.50422 -94.17952 15761 ft 333 kts 246°
2026-05-04 17:39 30.49347 -94.20294 15491 ft 332 kts 246°
2026-05-04 17:39 30.48263 -94.22655 15225 ft 332 kts 246°
2026-05-04 17:40 30.47180 -94.25012 15037 ft 330 kts 246°
2026-05-04 17:40 30.46122 -94.27307 14977 ft 316 kts 246°
2026-05-04 17:40 30.45104 -94.29513 14980 ft 308 kts 247°
2026-05-04 17:40 30.44097 -94.31704 14981 ft 304 kts 247°
2026-05-04 17:41 30.43115 -94.33834 14980 ft 296 kts 247°
2026-05-04 17:41 30.42151 -94.35928 14984 ft 294 kts 247°
2026-05-04 17:41 30.41193 -94.38011 14979 ft 293 kts 247°
2026-05-04 17:41 30.40184 -94.40016 14648 ft 294 kts 239°
2026-05-04 17:42 30.38771 -94.41771 14166 ft 300 kts 228°
2026-05-04 17:42 30.37176 -94.43338 13691 ft 301 kts 225°
2026-05-04 17:42 30.35554 -94.44867 13181 ft 300 kts 225°
2026-05-04 17:42 30.33948 -94.46378 12689 ft 299 kts 225°
2026-05-04 17:43 30.32344 -94.47893 12220 ft 296 kts 225°
2026-05-04 17:43 30.30752 -94.49402 11726 ft 295 kts 224°
2026-05-04 17:43 30.29168 -94.50907 11279 ft 294 kts 224°
2026-05-04 17:43 30.27613 -94.52385 10832 ft 293 kts 224°
2026-05-04 17:44 30.26042 -94.53879 10377 ft 292 kts 224°
2026-05-04 17:44 30.24480 -94.55364 10062 ft 287 kts 223°
2026-05-04 17:44 30.22976 -94.56788 9983 ft 272 kts 224°
2026-05-04 17:44 30.21532 -94.58156 9979 ft 266 kts 223°
2026-05-04 17:45 30.20083 -94.59488 9984 ft 266 kts 222°
2026-05-04 17:45 30.18625 -94.60799 9656 ft 266 kts 221°
2026-05-04 17:45 30.17170 -94.62099 9260 ft 263 kts 221°
2026-05-04 17:45 30.15730 -94.63382 9016 ft 260 kts 221°
2026-05-04 17:46 30.14318 -94.64639 8987 ft 260 kts 221°
2026-05-04 17:46 30.12883 -94.65918 8988 ft 260 kts 221°
2026-05-04 17:46 30.11481 -94.67163 8976 ft 249 kts 221°
2026-05-04 17:46 30.10128 -94.68366 8978 ft 243 kts 221°
2026-05-04 17:47 30.08790 -94.69557 8968 ft 242 kts 221°
2026-05-04 17:47 30.07453 -94.70749 8630 ft 243 kts 221°
2026-05-04 17:47 30.06123 -94.71932 8292 ft 240 kts 221°
2026-05-04 17:47 30.04820 -94.73099 8024 ft 236 kts 221°
2026-05-04 17:48 30.03550 -94.74259 7986 ft 236 kts 221°
2026-05-04 17:48 30.02267 -94.75446 7980 ft 236 kts 225°
2026-05-04 17:48 30.01221 -94.76866 7983 ft 230 kts 246°
2026-05-04 17:48 30.00785 -94.78611 7993 ft 227 kts 264°
2026-05-04 17:49 30.00657 -94.80416 7760 ft 225 kts 267°
2026-05-04 17:49 30.00625 -94.82208 7374 ft 221 kts 270°
2026-05-04 17:49 30.00635 -94.83973 6998 ft 219 kts 270°
2026-05-04 17:49 30.00649 -94.85734 6531 ft 220 kts 269°
2026-05-04 17:50 30.00660 -94.87482 6027 ft 222 kts 269°
2026-05-04 17:50 30.00669 -94.89271 5570 ft 224 kts 268°
2026-05-04 17:50 30.00677 -94.91063 5170 ft 223 kts 266°
2026-05-04 17:50 30.00684 -94.92852 4713 ft 224 kts 265°
2026-05-04 17:51 30.00688 -94.94649 4286 ft 223 kts 266°
2026-05-04 17:51 30.00691 -94.96429 4028 ft 222 kts 266°
2026-05-04 17:51 30.00694 -94.98215 3990 ft 222 kts 265°
2026-05-04 17:51 30.00698 -94.99993 3864 ft 222 kts 265°
2026-05-04 17:52 30.00701 -95.01780 3443 ft 223 kts 266°
2026-05-04 17:52 30.00703 -95.03533 3097 ft 220 kts 266°
2026-05-04 17:52 30.00703 -95.05295 2988 ft 219 kts 266°
2026-05-04 17:52 30.00710 -95.07047 2982 ft 218 kts 266°
2026-05-04 17:53 30.00710 -95.08800 2998 ft 219 kts 265°
2026-05-04 17:53 30.00714 -95.10550 2981 ft 219 kts 266°
2026-05-04 17:53 30.00723 -95.12307 2986 ft 219 kts 266°
2026-05-04 17:53 30.00731 -95.14066 2990 ft 220 kts 266°
2026-05-04 17:54 30.00735 -95.15824 3001 ft 215 kts 266°
2026-05-04 17:54 30.00733 -95.17491 2785 ft 204 kts 266°
2026-05-04 17:54 30.00728 -95.19088 2487 ft 200 kts 265°
2026-05-04 17:54 30.00726 -95.20687 2215 ft 192 kts 265°
2026-05-04 17:55 30.00727 -95.22177 1942 ft 186 kts 266°
2026-05-04 17:55 30.00728 -95.23660 1697 ft 182 kts 265°
2026-05-04 17:55 30.00728 -95.25065 1470 ft 168 kts 264°
2026-05-04 17:55 30.00725 -95.26350 1262 ft 155 kts 265°
2026-05-04 17:56 30.00724 -95.27547 1069 ft 142 kts 264°
2026-05-04 17:56 30.00727 -95.28652 917 ft 137 kts 262°
2026-05-04 17:56 30.00728 -95.29746 746 ft 136 kts 262°
2026-05-04 17:56 30.00721 -95.30830 551 ft 134 kts 262°
2026-05-04 17:57 30.00724 -95.31915 356 ft 138 kts 264°
2026-05-04 17:57 30.00722 -95.33027 149 ft 138 kts 261°
2026-05-04 17:57 30.00713 -95.34048 103 ft 117 kts 270°
2026-05-04 17:57 30.00717 -95.34690 101 ft 48 kts 268°
2026-05-04 17:58 30.00676 -95.34921 99 ft 19 kts 246°
2026-05-04 17:58 30.00632 -95.35010 99 ft 7 kts 226°
2026-05-04 17:58 30.00611 -95.35054 100 ft 8 kts 246°
2026-05-04 17:58 30.00574 -95.35143 99 ft 16 kts 245°
2026-05-04 17:59 30.00554 -95.35289 99 ft 21 kts 269°
2026-05-04 17:59 30.00554 -95.35472 98 ft 22 kts 270°
2026-05-04 17:59 30.00344 -95.35653 100 ft 22 kts 179°
2026-05-04 18:00 30.00202 -95.35616 101 ft 21 kts 141°
2026-05-04 18:00 30.00083 -95.35517 101 ft 21 kts 155°
2026-05-04 18:00 29.99936 -95.35487 99 ft 22 kts 180°
2026-05-04 18:00 29.99785 -95.35485 98 ft 22 kts 181°
2026-05-04 18:01 29.99632 -95.35486 99 ft 22 kts 180°
2026-05-04 18:01 29.99491 -95.35485 99 ft 14 kts 180°
2026-05-04 18:01 29.99466 -95.35485 97 ft 1 kts 180°
2026-05-04 18:02 29.99461 -95.35485 98 ft 0 kts 180°
2026-05-04 18:02 29.99440 -95.35485 99 ft 6 kts 180°
2026-05-04 18:02 29.99382 -95.35484 98 ft 11 kts 179°
2026-05-04 18:03 29.99290 -95.35484 97 ft 16 kts 180°
2026-05-04 18:03 29.99166 -95.35484 99 ft 19 kts 179°
2026-05-04 18:03 29.99091 -95.35410 99 ft 16 kts 95°
2026-05-04 18:03 29.99089 -95.35276 100 ft 18 kts 90°
2026-05-04 18:04 29.99087 -95.35126 102 ft 20 kts 91°
2026-05-04 18:04 29.99089 -95.34963 101 ft 21 kts 89°
2026-05-04 18:04 29.99089 -95.34607 102 ft 23 kts 90°
2026-05-04 18:05 29.99089 -95.34419 103 ft 24 kts 91°
2026-05-04 18:05 29.99089 -95.34222 104 ft 25 kts 91°
2026-05-04 18:05 29.99087 -95.34019 103 ft 26 kts 91°
2026-05-04 18:05 29.99090 -95.33815 102 ft 23 kts 88°
2026-05-04 18:06 29.98949 -95.33716 103 ft 6 kts 195°
2026-05-04 18:06 29.98919 -95.33740 102 ft 5 kts 229°
2026-05-04 18:06 29.98903 -95.33774 103 ft 2 kts 253°
2026-05-04 18:07 29.98901 -95.33793 103 ft 3 kts 275°
2026-05-04 18:07 29.98902 -95.33798 102 ft 0 kts 277°